Flag for Sweden Weather past 2 weeks in Örebro, Sweden

Now
32 °F

Chilly.


Feels Like: 26 °F
Forecast: 30 / 39 °F
Wind: 7 mph from Southeast

Location: Orebro Private

Current Time: Feb 27, 2015 at 5:24:48 AM

Latest Report: Feb 27, 2015 at 4:50 AM


Visibility: N/A

Pressure: 29.92 "Hg

Humidity: 93%

Dew point: 30 °F

Location of ÖrebroLocation

Historic Weather in Örebro — Graph

°F

Örebro temperature yesterday

Maximum temperature yesterday: 43 °F (at 3:50 PM)
Minimum temperature yesterday: 34 °F (at 12:20 AM)
Average temperature yesterday: 37 °F

Past Weeks' High & Low Weather Summary

 TemperatureHumidityPressure
High45 °F (Feb 19, 12:20 PM)100% (Feb 12, 7:50 PM)30.57 "Hg (Feb 12, 7:50 PM)
Low21 °F (Feb 16, 2:20 AM)60% (Feb 15, 3:20 PM)29.18 "Hg (Feb 23, 2:50 PM)
Average36 °F88%29.86 "Hg
* Reported Feb 12 3:20 AM — Feb 27 3:50 AM, Örebro, Weather by CustomWeather, © 2015

Note: Actual official high and low records may vary slightly from our data, if they occured in-between our weather recording intervals... More about our weather records

Advertising

Örebro weather history for previous 24 hours

 ConditionsComfort  
Time TempWeatherWind HumidityBarometerVisibility
3:50 AM
Fri, Feb 27
32 °FPassing clouds.10 mph93%29.92 "HgN/A
3:20 AM32 °FPassing clouds.9 mph93%29.92 "HgN/A
2:50 AM32 °FPassing clouds.9 mph87%29.95 "HgN/A
2:20 AM32 °FPassing clouds.8 mph93%29.95 "HgN/A
1:50 AM32 °FClear.8 mph93%29.95 "Hg10 mi
1:20 AM34 °FClear.9 mph87%29.95 "Hg10 mi
12:50 AM34 °FClear.12 mph87%29.95 "Hg10 mi
12:20 AM34 °FClear.12 mph87%29.98 "Hg10 mi
11:50 PM
Thu, Feb 26
34 °FClear.10 mph87%29.98 "Hg10 mi
11:20 PM34 °FClear.7 mph87%29.98 "Hg10 mi
10:50 PM34 °FClear.7 mph87%29.98 "Hg10 mi
10:20 PM34 °FClear.6 mph87%29.98 "Hg10 mi
9:50 PM36 °FClear.7 mph87%29.98 "Hg10 mi
9:20 PM36 °FClear.7 mph81%29.98 "Hg10 mi
8:50 PM36 °FClear.9 mph87%29.98 "Hg10 mi
8:20 PM36 °FClear.8 mph87%29.98 "Hg10 mi
7:50 PM36 °FClear.7 mph87%29.98 "Hg10 mi
7:20 PM37 °FPassing clouds.8 mph81%30.01 "HgN/A
6:50 PM37 °FOvercast.9 mph87%30.01 "HgN/A
6:20 PM39 °FOvercast.6 mph81%30.01 "HgN/A
5:50 PM39 °FPassing clouds.8 mph81%30.01 "HgN/A
5:20 PM41 °FOvercast.8 mph76%30.01 "HgN/A
4:50 PM41 °FOvercast.13 mph76%30.01 "HgN/A
4:20 PM41 °FScattered clouds.12 mph76%30.01 "HgN/A
3:50 PM43 °FSunny.10 mph71%30.01 "Hg10 mi
3:20 PM41 °FSunny.15 mph76%30.04 "Hg10 mi
2:50 PM41 °FPassing clouds.14 mph76%30.04 "HgN/A
2:20 PM41 °FScattered clouds.16 mph76%30.07 "HgN/A
1:50 PM41 °FBroken clouds.15 mph76%30.07 "HgN/A
1:20 PM39 °FPartly sunny.12 mph81%30.07 "HgN/A
12:50 PM39 °FPartly sunny.14 mph81%30.07 "HgN/A
12:20 PM39 °FPartly sunny.10 mph81%30.07 "HgN/A
11:50 AM39 °FPartly sunny.14 mph81%30.09 "HgN/A
11:20 AM37 °FPartly sunny.14 mph87%30.09 "HgN/A
10:50 AM37 °FPartly sunny.13 mph87%30.09 "HgN/A
10:20 AM37 °FPartly sunny.13 mph87%30.09 "HgN/A
9:50 AM37 °FPartly sunny.13 mph87%30.09 "HgN/A
8:50 AM36 °FPartly sunny.12 mph93%30.07 "HgN/A
8:20 AM36 °FPartly sunny.10 mph93%30.09 "HgN/A
7:50 AM34 °FPartly sunny.9 mph100%30.09 "HgN/A
6:50 AM34 °FPassing clouds.7 mph93%30.07 "HgN/A
6:20 AM34 °FPassing clouds.9 mph100%30.07 "HgN/A
5:50 AM36 °FPassing clouds.10 mph93%30.07 "HgN/A
Weather by CustomWeather, © 2015

See weather overviewHow to use our weather pages